Home   Weather   USA   Orange   Past weeks
Flag for USA

Past Weather in Orange, Texas, USA — Yesterday and Last 2 Weeks

Currently: 66 °F. Thundershowers. Low clouds. (Weather station: Orange County Airport, USA). See more current weather

Past Weather in Orange — Graph

°F

Orange Temperature Yesterday

Maximum temperature yesterday: 74 °F (at 3:55 pm)
Minimum temperature yesterday: 62 °F (at 7:55 am)
Average temperature yesterday: 68 °F

High & Low Weather Summary for the Past Weeks

 TemperatureHumidityPressure
High85 °F (Apr 8, 2:35 pm)97% (Apr 8, 5:15 am)30.51 "Hg (Apr 8, 5:15 am)
Low40 °F (Apr 2, 5:55 am)14% (Apr 1, 6:15 pm)29.66 "Hg (Apr 9, 8:55 pm)
Average68 °F72%29.99 "Hg
* Reported Apr 1 6:15 pm — Apr 16 6:15 pm, Orange. Weather by CustomWeather, © 2021

Note: Actual official high and low records may vary slightly from our data, if they occured in-between our weather recording intervals... More about our weather records

Orange Weather History for the Previous 24 Hours

Scroll right to see more
 ConditionsComfort  
Time TempWeatherWind HumidityBarometerVisibility
6:15 pm
Fri, Apr 16
67 °FRain. Low clouds.7 mph93%29.77 "Hg2 mi
5:55 pm67 °FFog.9 mph93%29.76 "Hg2 mi
5:35 pm67 °FFog.8 mph93%29.75 "Hg3 mi
5:15 pm67 °FFog.10 mph93%29.75 "Hg4 mi
4:55 pm68 °FFog.7 mph92%29.75 "Hg3 mi
4:35 pm68 °FDrizzle. Low clouds.6 mph92%29.75 "Hg2 mi
4:15 pm68 °FLight rain. Low clouds.8 mph91%29.75 "Hg2 mi
3:55 pm68 °FDrizzle. More clouds than sun.7 mph88%29.76 "Hg2 mi
3:35 pm70 °FOvercast.9 mph80%29.77 "Hg3 mi
3:15 pm71 °FOvercast.7 mph74%29.77 "Hg10 mi
2:35 pm72 °FOvercast.8 mph72%29.77 "Hg10 mi
2:15 pm71 °FOvercast.7 mph72%29.77 "Hg10 mi
1:15 pm72 °FOvercast.8 mph69%29.80 "Hg10 mi
12:55 pm73 °FMostly cloudy.8 mph66%29.80 "Hg10 mi
12:35 pm74 °FOvercast.12 mph65%29.80 "Hg10 mi
12:15 pm72 °FOvercast.8 mph70%29.81 "Hg10 mi
11:55 am70 °FOvercast.5 mph75%29.82 "Hg10 mi
11:35 am69 °FOvercast.6 mph74%29.84 "Hg10 mi
11:15 am70 °FOvercast.6 mph73%29.84 "Hg10 mi
10:55 am69 °FOvercast.5 mph74%29.83 "Hg10 mi
10:35 am68 °FLight rain. Mostly cloudy.8 mph74%29.84 "Hg10 mi
10:15 am69 °FMore clouds than sun.6 mph71%29.85 "Hg10 mi
9:55 am69 °FCloudy.7 mph70%29.85 "Hg10 mi
9:35 am68 °FBroken clouds.7 mph73%29.85 "Hg10 mi
9:15 am67 °FBroken clouds.12 mph75%29.86 "Hg10 mi
8:35 am65 °FCloudy.9 mph80%29.88 "Hg10 mi
8:15 am65 °FMostly cloudy.10 mph80%29.90 "Hg10 mi
7:55 am64 °FMostly cloudy.10 mph80%29.91 "Hg10 mi
7:35 am64 °FOvercast.7 mph78%29.90 "Hg10 mi
7:15 am64 °FMore clouds than sun.9 mph77%29.89 "Hg10 mi
6:55 am64 °FCloudy.6 mph76%29.87 "Hg10 mi
6:35 am64 °FMostly cloudy.7 mph75%29.88 "Hg10 mi
6:15 am64 °FMostly cloudy.8 mph76%29.87 "Hg10 mi
5:55 am64 °FOvercast.8 mph75%29.86 "Hg10 mi
5:35 am64 °FMostly cloudy.10 mph74%29.85 "Hg10 mi
5:15 am64 °FOvercast.12 mph71%29.86 "Hg10 mi
4:55 am65 °FOvercast.15 mph73%29.86 "Hg10 mi
4:35 am65 °FOvercast.7 mph73%29.86 "Hg10 mi
4:15 am65 °FOvercast.8 mph73%29.87 "Hg10 mi
3:55 am66 °FOvercast.6 mph74%29.88 "Hg10 mi
3:35 am67 °FOvercast.6 mph73%29.86 "Hg10 mi
3:15 am67 °FOvercast.6 mph73%29.85 "Hg10 mi
2:55 am67 °FOvercast.7 mph73%29.84 "Hg10 mi
2:35 am67 °FOvercast.8 mph74%29.82 "Hg10 mi
2:15 am67 °FOvercast.8 mph73%29.84 "Hg10 mi
1:55 am67 °FMostly cloudy.8 mph73%29.85 "Hg10 mi
1:35 am67 °FOvercast.8 mph71%29.88 "Hg10 mi
1:15 am67 °FOvercast.9 mph73%29.88 "Hg10 mi
12:55 am67 °FPassing clouds.9 mph74%29.89 "Hg10 mi
12:35 am67 °FPassing clouds.9 mph74%29.89 "Hg10 mi
11:55 pm
Thu, Apr 15
67 °FPassing clouds.6 mph77%29.91 "Hg10 mi
11:35 pm67 °FPassing clouds.6 mph76%29.91 "Hg10 mi
11:15 pm68 °FPassing clouds.5 mph76%29.92 "Hg10 mi
10:55 pm67 °FClear.6 mph78%29.91 "Hg10 mi
10:35 pm68 °FClear.3 mph75%29.93 "Hg10 mi
10:15 pm68 °FClear.No wind77%29.93 "Hg10 mi
9:55 pm67 °FClear.7 mph79%29.90 "Hg10 mi
9:35 pm68 °FPassing clouds.6 mph77%29.93 "Hg10 mi
9:15 pm69 °FPassing clouds.No wind74%29.94 "Hg10 mi
8:55 pm69 °FPassing clouds.3 mph73%29.94 "Hg10 mi
8:35 pm68 °FPassing clouds.6 mph75%29.90 "Hg10 mi
8:15 pm68 °FClear.No wind75%29.91 "Hg10 mi
7:55 pm68 °FClear.3 mph76%29.90 "Hg10 mi
7:35 pm69 °FSunny.5 mph72%29.90 "Hg10 mi
7:15 pm70 °FSunny.6 mph71%29.90 "Hg10 mi
Weather by CustomWeather, © 2021

See weather overview